Bellefontaine, OH

8:19 PM EDT on June 24, 2017 (GMT -0400)
Bellefontaine

Weather History for KEDJ - December, 2012

Change the Weather History Date:

Thursday, December 6, 2012

  Actual Average (KDLZ) Record (KDLZ)
Temperature  
Mean Temperature 36 °F -  
Max Temperature 42 °F 42 °F 69 °F (1956)
Min Temperature 30 °F 26 °F 7 °F (1974)
Degree Days  
Heating Degree Days 29    
Moisture  
Dew Point 30 °F    
Average Humidity 78    
Maximum Humidity 100    
Minimum Humidity 66    
Precipitation  
Precipitation 0.00 in - - ()
Sea Level Pressure  
Sea Level Pressure 30.10 in    
Wind  
Wind Speed 9 mph (SE)    
Max Wind Speed 15 mph    
Max Gust Speed 20 mph    
Visibility 10 miles    
Events      
Averages and records for this station are not official NWS values.
T = Trace of Precipitation, MM = Missing Value Source: NWS Daily Summary

Daily Weather History Graph

Daily Weather History Graph

Search for Another Location

Airport or City:

Trip Planner

Search our weather history database for the weather conditions in past years. The results will help you decide how hot, cold, wet, or windy it might be!

Date:

Astronomy

Dec. 06, 2012 Rise Set
Actual Time 7:44 AM EST 5:08 PM EST
Civil Twilight 7:13 AM EST 5:39 PM EST
Nautical Twilight 6:39 AM EST 6:13 PM EST
Astronomical Twilight 6:06 AM EST 6:46 PM EST
Moon No Moon Rise 12:35 PM EST (12/6)
Length of Visible Light 10h 25m
Length of Day
9h 24m
Waning Gibbous, 49% of the Moon is Illuminated
Dec 6
Waning Gibbous
Dec 13
New
Dec 20
First Quarter
Dec 28
Full
Jan 4
Last Quarter

Hourly Weather History & Observations

Time (EST) Temp. Windchill Dew Point Humidity Pressure Visibility Wind Dir Wind Speed Gust Speed Precip Events Conditions
12:10 AM 30.2 °F 21.9 °F 23.0 °F 75% 30.28 in 10.0 mi East 9.2 mph - 0.00 in   Clear
12:30 AM 30.2 °F 22.6 °F 23.0 °F 75% 30.27 in 10.0 mi East 8.1 mph - 0.00 in   Clear
12:50 AM 30.2 °F 24.3 °F 23.0 °F 75% 30.27 in 10.0 mi East 5.8 mph - 0.00 in   Clear
1:10 AM 30.2 °F 23.4 °F 23.0 °F 75% 30.26 in 10.0 mi ESE 6.9 mph - 0.00 in   Clear
1:30 AM 30.2 °F 22.6 °F 23.0 °F 75% 30.25 in 10.0 mi ESE 8.1 mph 17.3 mph 0.00 in   Clear
1:50 AM 30.2 °F 23.4 °F 23.0 °F 75% 30.25 in 10.0 mi SE 6.9 mph - 0.00 in   Clear
2:10 AM 30.2 °F 21.9 °F 23.0 °F 75% 30.25 in 10.0 mi ESE 9.2 mph - 0.00 in   Clear
2:30 AM 30.2 °F 22.6 °F 23.0 °F 75% 30.25 in 10.0 mi SE 8.1 mph - 0.00 in   Clear
2:50 AM 30.2 °F 21.9 °F 23.0 °F 75% 30.24 in 10.0 mi ESE 9.2 mph - 0.00 in   Clear
3:10 AM 30.2 °F 22.6 °F 23.0 °F 75% 30.23 in 10.0 mi ESE 8.1 mph 17.3 mph 0.00 in   Clear
3:30 AM 30.2 °F 21.3 °F 23.0 °F 75% 30.22 in 10.0 mi ESE 10.4 mph - 0.00 in   Clear
3:50 AM 30.2 °F 21.9 °F 23.0 °F 75% 30.22 in 10.0 mi SE 9.2 mph - 0.00 in   Clear
4:10 AM 30.2 °F 21.9 °F 23.0 °F 75% 30.22 in 10.0 mi SE 9.2 mph - 0.00 in   Clear
4:30 AM 30.2 °F 21.9 °F 23.0 °F 75% 30.22 in 10.0 mi SE 9.2 mph - 0.00 in   Clear
4:50 AM 30.2 °F 21.9 °F 23.0 °F 75% 30.22 in 10.0 mi SE 9.2 mph - 0.00 in   Clear
5:10 AM 30.2 °F 21.9 °F 23.0 °F 75% 30.21 in 10.0 mi SE 9.2 mph 16.1 mph 0.00 in   Clear
5:30 AM 30.2 °F 21.3 °F 23.0 °F 75% 30.21 in 10.0 mi SE 10.4 mph - 0.00 in   Clear
5:50 AM 30.2 °F 20.8 °F 23.0 °F 75% 30.20 in 10.0 mi SE 11.5 mph - 0.00 in   Clear
6:10 AM 30.2 °F 21.3 °F 23.0 °F 75% 30.20 in 10.0 mi SE 10.4 mph 17.3 mph 0.00 in   Clear
6:30 AM 30.2 °F 21.3 °F 23.0 °F 75% 30.20 in 10.0 mi SE 10.4 mph - 0.00 in   Clear
6:50 AM 30.2 °F 20.8 °F 23.0 °F 75% 30.19 in 10.0 mi ESE 11.5 mph - 0.00 in   Clear
7:00 AM 30.2 °F 20.8 °F 23.0 °F 75% 30.20 in 10.0 mi ESE 11.5 mph - 0.00 in   Clear
7:55 AM - - - N/A% 30.16 in - ESE 13.8 mph - 0.00 in   Unknown
8:05 AM 30.2 °F 20.2 °F 23.0 °F 75% 30.17 in 10.0 mi SE 12.7 mph 19.6 mph 0.00 in   Unknown
8:25 AM 30.2 °F 20.2 °F 23.0 °F 75% 30.17 in 10.0 mi SE 12.7 mph 19.6 mph 0.00 in   Clear
8:45 AM 32.0 °F 22.1 °F 24.8 °F 75% 30.16 in 10.0 mi SE 13.8 mph 17.3 mph 0.00 in   Clear
9:05 AM 32.0 °F 21.6 °F 24.8 °F 75% 30.15 in 10.0 mi SE 15.0 mph 18.4 mph 0.00 in   Clear
9:25 AM 32.0 °F 21.6 °F 24.8 °F 75% 30.16 in 10.0 mi SE 15.0 mph - 0.00 in   Clear
9:45 AM 32.0 °F 22.1 °F 26.6 °F 80% 30.16 in 10.0 mi SSE 13.8 mph 18.4 mph 0.00 in   Clear
10:05 AM 32.0 °F 23.6 °F 26.6 °F 80% 30.15 in 10.0 mi SSE 10.4 mph - 0.00 in   Clear
10:25 AM 33.8 °F 24.8 °F 28.4 °F 81% 30.15 in 10.0 mi SSE 12.7 mph - 0.00 in   Clear
10:45 AM 33.8 °F 25.8 °F 28.4 °F 81% 30.15 in 10.0 mi SSE 10.4 mph - 0.00 in   Clear
11:05 AM 35.6 °F 29.2 °F 30.2 °F 81% 30.15 in 10.0 mi South 8.1 mph - 0.00 in   Clear
11:25 AM 33.8 °F 26.4 °F 30.2 °F 87% 30.14 in 10.0 mi SSE 9.2 mph - 0.00 in   Clear
11:45 AM 35.6 °F 30.7 °F 32.0 °F 87% 30.13 in 10.0 mi SSE 5.8 mph - 0.00 in   Clear
12:05 PM 37.4 °F 30.8 °F 32.0 °F 81% 30.11 in 10.0 mi South 9.2 mph - 0.00 in   Clear
12:25 PM 37.4 °F 30.8 °F 32.0 °F 81% 30.10 in 10.0 mi South 9.2 mph - 0.00 in   Clear
12:45 PM 39.2 °F 33.6 °F 32.0 °F 75% 30.09 in 10.0 mi SSE 8.1 mph - 0.00 in   Clear
1:05 PM 39.2 °F 33.0 °F 32.0 °F 75% 30.08 in 10.0 mi South 9.2 mph - 0.00 in   Clear
1:25 PM 39.2 °F 34.2 °F 32.0 °F 75% 30.07 in 10.0 mi SSE 6.9 mph - 0.00 in   Clear
1:45 PM 41.0 °F 34.7 °F 32.0 °F 70% 30.05 in 10.0 mi SE 10.4 mph - 0.00 in   Clear
2:05 PM 41.0 °F 35.2 °F 32.0 °F 70% 30.04 in 10.0 mi SSE 9.2 mph - 0.00 in   Clear
2:25 PM 41.0 °F 35.2 °F 33.8 °F 76% 30.02 in 10.0 mi SSE 9.2 mph - 0.00 in   Clear
2:45 PM 42.8 °F 37.0 °F 33.8 °F 70% 30.02 in 10.0 mi SE 10.4 mph - 0.00 in   Clear
3:05 PM 42.8 °F 38.0 °F 32.0 °F 66% 30.02 in 10.0 mi SSE 8.1 mph - 0.00 in   Clear
3:25 PM 42.8 °F 38.6 °F 32.0 °F 66% 30.02 in 10.0 mi South 6.9 mph - 0.00 in   Clear
3:45 PM 42.8 °F 38.6 °F 33.8 °F 70% 30.02 in 10.0 mi SSE 6.9 mph - 0.00 in   Clear
4:05 PM 41.0 °F 35.8 °F 32.0 °F 70% 30.01 in 10.0 mi SSE 8.1 mph - 0.00 in   Clear
4:25 PM 41.0 °F 35.8 °F 33.8 °F 76% 30.01 in 10.0 mi SSE 8.1 mph - 0.00 in   Clear
4:45 PM 39.2 °F 33.6 °F 33.8 °F 81% 30.00 in 10.0 mi SE 8.1 mph - 0.00 in   Clear
5:05 PM 39.2 °F 35.0 °F 33.8 °F 81% 30.00 in 10.0 mi SE 5.8 mph - 0.00 in   Clear
5:25 PM 37.4 °F 32.8 °F 33.8 °F 87% 30.01 in 10.0 mi SSE 5.8 mph - 0.00 in   Clear
5:45 PM 37.4 °F 32.8 °F 33.8 °F 87% 30.01 in 10.0 mi SSE 5.8 mph - 0.00 in   Clear
6:05 PM 35.6 °F 29.9 °F 33.8 °F 93% 30.01 in 10.0 mi SSE 6.9 mph - 0.00 in   Clear
6:25 PM 37.4 °F 32.8 °F 35.6 °F 93% 30.01 in 10.0 mi SSE 5.8 mph - 0.00 in   Clear
6:45 PM 37.4 °F 32.1 °F 35.6 °F 93% 30.01 in 10.0 mi SE 6.9 mph - 0.00 in   Mostly Cloudy
7:05 PM 39.2 °F 33.6 °F 35.6 °F 87% 30.00 in 10.0 mi SE 8.1 mph - 0.00 in   Mostly Cloudy
7:25 PM 39.2 °F 33.6 °F 35.6 °F 87% 30.01 in 10.0 mi SSE 8.1 mph - 0.00 in   Mostly Cloudy
7:45 PM 39.2 °F 32.5 °F 35.6 °F 87% 30.00 in 10.0 mi SE 10.4 mph - 0.00 in   Overcast
8:05 PM 39.2 °F 33.0 °F 35.6 °F 87% 29.99 in 10.0 mi SE 9.2 mph - 0.00 in   Mostly Cloudy
8:25 PM 39.2 °F 32.0 °F 35.6 °F 87% 29.98 in 10.0 mi SSE 11.5 mph - 0.00 in   Mostly Cloudy
8:45 PM 41.0 °F 33.9 °F 33.8 °F 76% 29.97 in 10.0 mi SSE 12.7 mph - 0.00 in   Mostly Cloudy
9:05 PM 41.0 °F 34.3 °F 35.6 °F 81% 29.98 in 10.0 mi SSE 11.5 mph - 0.00 in   Mostly Cloudy
9:25 PM 41.0 °F 35.2 °F 35.6 °F 81% 29.97 in 10.0 mi SSE 9.2 mph - 0.00 in   Mostly Cloudy
9:45 PM 42.8 °F 36.6 °F 35.6 °F 76% 29.96 in 10.0 mi SSE 11.5 mph - 0.00 in   Overcast
10:05 PM 42.8 °F 37.0 °F 35.6 °F 76% 29.96 in 10.0 mi SSE 10.4 mph - 0.00 in   Overcast
10:25 PM 42.8 °F 37.5 °F 35.6 °F 76% 29.96 in 10.0 mi SSE 9.2 mph - 0.00 in   Overcast
10:45 PM 42.8 °F 37.0 °F 37.4 °F 81% 29.96 in 10.0 mi SSE 10.4 mph - 0.00 in   Overcast
11:05 PM 42.8 °F 38.6 °F 39.2 °F 87% 29.95 in 10.0 mi South 6.9 mph - 0.00 in   Overcast
11:25 PM 42.8 °F 40.1 °F 39.2 °F 87% 29.96 in 8.0 mi SW 4.6 mph - 0.00 in   Overcast
11:45 PM 41.0 °F - 41.0 °F 100% 29.96 in 3.0 mi Calm Calm - 0.00 in   Overcast